EW5609 Weather Reports


time (UTC)temp
C
wind
direction
speed
KPH
gust
KPH
rain 1hr
cm
rain 24hr
cm
rain mn
cm
humidity
%
barometer
mb
20260505152545 25 256 1.6 22.5 0.00 0.05 0.05 43 1005.9
20260505151804 25 284 0.0 11.3 0.00 0.05 0.05 43 1005.9
20260505151241 25 262 1.6 11.3 0.00 0.05 0.05 45 1006.0
20260505150714 24 257 1.6 12.9 0.00 0.05 0.05 44 1005.9
20260505150150 24 242 0.0 8.0 0.00 0.05 0.05 45 1006.0
20260505140318 22 247 1.6 19.3 0.03 0.05 0.05 50 1006.1
20260505130257 18 257 0.0 12.9 0.00 0.03 0.03 66 1006.9
20260505124756 17 274 0.0 0.0 0.00 0.03 0.03 70 1007.2
20260505124256 16 259 0.0 0.0 0.00 0.03 0.03 71 1007.2
20260505124008 16 261 0.0 0.0 0.00 0.03 0.03 72 1007.3
20260505123249 16 261 0.0 0.0 0.00 0.03 0.03 73 1007.2
20260505122751 16 288 0.0 0.0 0.00 0.03 0.03 74 1007.2
20260505122245 16 9 0.0 0.0 0.03 0.03 0.03 74 1007.1
20260505121745 16 153 0.0 0.0 0.03 0.03 0.03 75 1007.1
20260505121505 16 226 0.0 0.0 0.03 0.03 0.03 76 1007.2
20260505120737 15 275 0.0 0.0 0.03 0.03 0.03 77 1007.1
20260505120237 15 271 0.0 0.0 0.03 0.03 0.03 78 1007.1
20260505115958 15 271 0.0 0.0 0.03 0.03 0.03 79 1007.1
20260505115452 15 271 0.0 0.0 0.03 0.03 0.03 79 1006.9
20260505115222 15 223 0.0 0.0 0.03 0.03 0.03 78 1006.7
20260505114723 15 225 0.0 3.2 0.03 0.03 0.03 77 1006.7
20260505113949 15 223 0.0 3.2 0.03 0.03 0.03 76 1006.8
20260505113228 15 150 3.2 19.3 0.03 0.03 0.03 74 1006.6
20260505112725 15 152 3.2 19.3 0.03 0.03 0.03 73 1006.6
20260505112224 16 139 0.0 3.2 0.00 0.00 0.00 70 1007.5
20260505111723 16 254 0.0 1.6 0.00 0.00 0.00 68 1007.3
20260505111219 16 252 0.0 0.0 0.00 0.00 0.00 67 1007.5
20260505110721 16 276 0.0 0.0 0.00 0.00 0.00 66 1007.4
20260505110151 16 201 0.0 1.6 0.00 0.00 0.00 65 1007.3
20260505102131 16 0 0.0 1.6 0.00 0.00 0.00 64 1006.7
20260505101623 16 0 0.0 6.4 0.00 0.00 0.00 64 1006.7
20260505101122 16 273 0.0 6.4 0.00 0.00 0.00 64 1006.5
20260505100619 16 161 0.0 0.0 0.00 0.00 0.00 64 1006.4
20260505100120 16 229 0.0 0.0 0.00 0.00 0.00 64 1006.3
20260505095607 16 208 0.0 1.6 0.00 0.00 0.00 63 1006.3
20260505095108 16 229 0.0 1.6 0.00 0.00 0.00 63 1006.4
20260505094604 16 182 0.0 0.0 0.00 0.00 0.00 62 1006.3
20260505094106 16 125 0.0 0.0 0.00 0.00 0.00 62 1006.2
20260505093605 16 225 0.0 0.0 0.00 0.00 0.00 61 1006.2
20260505093102 16 243 0.0 0.0 0.00 0.00 0.00 61 1006.1
20260505092834 16 286 0.0 0.0 0.00 0.00 0.00 61 1006.2
20260505092101 16 286 0.0 0.0 0.00 0.00 0.00 61 1006.0
20260505091552 16 252 0.0 0.0 0.00 0.00 0.00 60 1005.9
20260505091323 16 252 0.0 0.0 0.00 0.00 0.00 60 1005.9
20260505090549 16 279 0.0 0.0 0.00 0.00 0.00 60 1005.9
20260505090050 16 116 0.0 0.0 0.00 0.00 0.00 60 1005.8
20260505085537 16 205 0.0 0.0 0.00 0.00 0.00 60 1005.8
20260505085035 16 254 0.0 0.0 0.00 0.00 0.00 60 1005.8
20260505084505 16 273 0.0 0.0 0.00 0.00 0.00 60 1005.8
20260505084203 16 273 0.0 0.0 0.00 0.00 0.00 60 1005.7
20260505083413 16 211 0.0 0.0 0.00 0.00 0.00 59 1005.7
20260505082846 16 271 0.0 0.0 0.00 0.00 0.00 59 1005.7
20260505082322 16 161 0.0 0.0 0.00 0.00 0.00 59 1005.7
20260505081754 16 122 0.0 0.0 0.00 0.00 0.00 58 1005.8
20260505081229 16 224 0.0 3.2 0.00 0.00 0.00 58 1005.7
20260505080704 16 239 0.0 3.2 0.00 0.00 0.00 58 1005.8
20260505080139 16 190 0.0 0.0 0.00 0.00 0.00 58 1005.9
20260505075610 16 123 0.0 0.0 0.00 0.00 0.00 57 1005.9
20260505075238 16 299 0.0 0.0 0.00 0.00 0.00 58 1005.9
20260505075118 16 234 0.0 0.0 0.00 0.00 0.00 57 1005.9
20260505073951 16 202 0.0 0.0 0.00 0.00 0.00 58 1005.9
20260505073439 16 214 0.0 0.0 0.00 0.00 0.00 57 1005.9
20260505073159 16 171 0.0 0.0 0.00 0.00 0.00 57 1005.8
20260505072434 17 248 0.0 0.0 0.00 0.00 0.00 57 1005.8
20260505071935 17 190 0.0 0.0 0.00 0.00 0.00 56 1005.8
20260505071435 17 259 0.0 0.0 0.00 0.00 0.00 56 1006.0
20260505071424 16 263 0.0 4.8 0.00 0.00 0.00 56 1005.9
20260505070435 16 262 0.0 4.8 0.00 0.00 0.00 56 1005.9
20260505065928 16 144 0.0 0.0 0.00 0.00 0.00 56 1005.9
20260505065428 16 270 0.0 0.0 0.00 0.00 0.00 56 1005.9
20260505064927 16 263 0.0 0.0 0.00 0.00 0.00 56 1005.9
20260505064425 17 263 0.0 1.6 0.00 0.00 0.00 56 1006.0
20260505063925 17 171 0.0 1.6 0.00 0.00 0.00 55 1006.0
20260505063426 17 261 0.0 0.0 0.00 0.00 0.00 55 1006.1
20260505062926 17 254 0.0 0.0 0.00 0.00 0.00 55 1006.2
20260505062410 17 270 0.0 0.0 0.00 0.00 0.00 54 1006.0
20260505061909 17 246 0.0 0.0 0.00 0.00 0.00 54 1006.0
20260505061837 17 151 0.0 0.0 0.00 0.00 0.00 54 1006.0
20260505060852 17 166 0.0 0.0 0.00 0.00 0.00 54 1005.9
20260505060601 17 261 0.0 0.0 0.00 0.00 0.00 54 1006.0
20260505055839 17 121 0.0 0.0 0.00 0.00 0.00 53 1006.0
20260505055338 17 143 0.0 4.8 0.00 0.00 0.00 53 1006.0
20260505054838 17 0 0.0 4.8 0.00 0.00 0.00 53 1006.2
20260505054337 17 251 0.0 0.0 0.00 0.00 0.00 54 1006.2
20260505053835 17 146 0.0 0.0 0.00 0.00 0.00 53 1006.2
20260505053333 17 246 0.0 0.0 0.00 0.00 0.00 53 1006.2
20260505053057 17 150 0.0 0.0 0.00 0.00 0.00 53 1006.3
20260505052328 17 143 0.0 0.0 0.00 0.00 0.00 53 1006.3
20260505051828 17 254 0.0 0.0 0.00 0.00 0.00 52 1006.3
20260505051329 17 254 0.0 0.0 0.00 0.00 0.00 52 1006.2
20260505050828 17 245 0.0 0.0 0.00 0.00 0.00 52 1006.2
20260505050557 17 121 0.0 0.0 0.00 0.00 0.00 52 1006.3
20260505041234 17 242 0.0 6.4 0.00 0.00 0.00 51 1006.0
20260505040732 17 19 0.0 0.0 0.00 0.00 0.00 51 1005.9
20260505040453 17 250 0.0 0.0 0.00 0.00 0.00 51 1005.9
20260505035730 17 204 0.0 0.0 0.00 0.00 0.00 52 1006.0
20260505035229 17 277 0.0 0.0 0.00 0.00 0.00 53 1006.0
20260505034729 17 263 0.0 0.0 0.00 0.00 0.00 52 1005.9
20260505034708 17 292 0.0 0.0 0.00 0.00 0.00 52 1005.9
20260505033728 17 272 0.0 0.0 0.00 0.00 0.00 52 1006.1
20260505033219 17 258 0.0 8.0 0.00 0.00 0.00 51 1006.0
20260505032719 17 258 0.0 8.0 0.00 0.00 0.00 51 1006.1
20260505032218 17 136 0.0 0.0 0.00 0.00 0.00 52 1006.1
20260505031719 17 253 0.0 1.6 0.00 0.00 0.00 51 1006.2
20260505031152 17 292 0.0 1.6 0.00 0.00 0.00 51 1006.1
20260505030625 17 245 0.0 0.0 0.00 0.00 0.00 51 1006.0
20260505030059 17 180 0.0 0.0 0.00 0.00 0.00 51 1006.2
20260505025533 17 266 0.0 0.0 0.00 0.00 0.00 50 1006.1
20260505025004 17 273 0.0 0.0 0.00 0.00 0.00 50 1006.2
20260505024436 17 273 0.0 4.8 0.00 0.00 0.00 50 1006.2
20260505023909 18 252 0.0 4.8 0.00 0.00 0.00 49 1006.2
20260505023344 18 254 0.0 11.3 0.00 0.00 0.00 48 1006.3
20260505022818 18 182 0.0 1.6 0.00 0.00 0.00 48 1006.3
20260505022252 18 243 0.0 0.0 0.00 0.00 0.00 48 1006.4
20260505021728 18 240 0.0 0.0 0.00 0.00 0.00 47 1006.4
20260505021205 18 157 0.0 0.0 0.00 0.00 0.00 47 1006.5
20260505020630 18 161 0.0 0.0 0.00 0.00 0.00 47 1006.3
20260505020258 18 256 0.0 0.0 0.00 0.00 0.00 46 1006.3
20260505020138 18 244 0.0 3.2 0.00 0.00 0.00 47 1006.4
20260505015011 18 159 0.0 1.6 0.00 0.00 0.00 45 1006.2
20260505014444 18 139 0.0 1.6 0.00 0.00 0.00 46 1006.3
20260505013916 18 139 0.0 0.0 0.00 0.00 0.00 47 1006.2
20260505013358 18 136 0.0 0.0 0.00 0.00 0.00 47 1006.1
20260505012859 18 246 0.0 0.0 0.00 0.00 0.00 47 1006.0
20260505012339 18 248 0.0 0.0 0.00 0.00 0.00 45 1006.1
20260505012059 18 158 0.0 0.0 0.00 0.00 0.00 45 1006.0
20260505011332 18 167 0.0 0.0 0.00 0.00 0.00 46 1006.0
20260505010832 18 103 0.0 0.0 0.00 0.00 0.00 46 1005.9
20260505010513 18 234 0.0 0.0 0.00 0.00 0.00 46 1005.9
20260505005746 18 238 0.0 0.0 0.00 0.00 0.00 45 1005.8
20260505005245 18 237 0.0 0.0 0.00 0.00 0.00 45 1005.8
20260505004742 18 237 0.0 0.0 0.00 0.00 0.00 44 1005.8
20260505004241 18 113 0.0 0.0 0.00 0.00 0.00 45 1005.8
20260505004229 19 207 0.0 0.0 0.00 0.00 0.00 44 1005.7
20260505003237 19 135 0.0 0.0 0.00 0.00 0.00 44 1005.7
20260505002734 19 257 0.0 0.0 0.00 0.00 0.00 43 1005.6
20260505002235 19 276 0.0 0.0 0.00 0.00 0.00 43 1005.6
20260505001726 20 159 0.0 0.0 0.00 0.00 0.00 43 1005.6
20260505001444 20 171 0.0 0.0 0.00 0.00 0.00 42 1005.5
20260505000721 20 191 0.0 0.0 0.00 0.00 0.00 43 1005.3
20260505000223 20 142 0.0 0.0 0.00 0.00 0.00 43 1005.3
20260504235653 20 144 0.0 0.0 0.00 0.00 0.00 41 1005.3
20260504235130 20 142 0.0 14.5 0.00 0.00 0.00 41 1005.3
20260504234601 20 148 0.0 14.5 0.00 0.00 0.00 40 1005.2
20260504234332 20 113 0.0 1.6 0.00 0.00 0.00 40 1005.2
20260504233534 20 150 0.0 0.0 0.00 0.00 0.00 40 1005.2
20260504233012 20 123 0.0 0.0 0.00 0.00 0.00 40 1005.1
20260504232512 20 0 0.0 1.6 0.00 0.00 0.00 39 1005.1
20260504232000 21 232 0.0 1.6 0.00 0.00 0.00 39 1005.1
20260504231459 21 142 0.0 0.0 0.00 0.00 0.00 40 1005.0
20260504230958 21 152 0.0 14.5 0.00 0.00 0.00 38 1005.1
20260504230718 21 167 0.0 14.5 0.00 0.00 0.00 38 1005.1
20260504230451 21 128 0.0 0.0 0.00 0.00 0.00 38 1004.9
20260504225453 21 252 0.0 1.6 0.00 0.00 0.00 38 1004.9
20260504224950 21 271 0.0 1.6 0.00 0.00 0.00 38 1004.8
20260504224449 21 255 0.0 0.0 0.00 0.00 0.00 36 1004.8
20260504223946 21 246 0.0 0.0 0.00 0.00 0.00 38 1005.0
20260504223446 21 0 1.6 24.1 0.00 0.00 0.00 37 1004.9
20260504222946 21 140 1.6 24.1 0.00 0.00 0.00 38 1004.9
20260504222702 21 142 0.0 6.4 0.00 0.00 0.00 36 1004.9
20260504221939 22 261 0.0 1.6 0.00 0.00 0.00 36 1004.9
20260504221435 22 252 0.0 1.6 0.00 0.00 0.00 36 1004.9
20260504220937 22 253 1.6 8.0 0.00 0.00 0.00 35 1004.9
20260504220650 22 261 1.6 16.1 0.00 0.00 0.00 36 1004.9
20260504215921 22 139 0.0 16.1 0.00 0.00 0.00 36 1005.0
20260504215638 22 243 0.0 1.6 0.00 0.00 0.00 35 1004.8
20260504215138 22 144 0.0 4.8 0.00 0.00 0.00 34 1004.9
20260504214418 23 249 0.0 4.8 0.00 0.00 0.00 32 1004.8
20260504213910 23 234 0.0 4.8 0.00 0.00 0.00 31 1004.9
20260504213627 23 221 0.0 1.6 0.00 0.00 0.00 32 1004.9
20260504212907 23 285 0.0 0.0 0.00 0.00 0.00 32 1004.9
20260504212406 23 274 0.0 0.0 0.00 0.00 0.00 33 1004.9
20260504211904 23 278 0.0 12.9 0.00 0.00 0.00 32 1005.0
20260504211608 23 246 0.0 4.8 0.00 0.00 0.00 32 1005.1
20260504211453 23 249 0.0 12.9 0.00 0.00 0.00 32 1005.0
20260504210358 22 250 0.0 11.3 0.00 0.00 0.00 31 1005.2
20260504205852 22 231 0.0 11.3 0.00 0.00 0.00 32 1005.2
20260504205622 22 266 0.0 8.0 0.00 0.00 0.00 34 1005.2
20260504204847 22 242 0.0 8.0 0.00 0.00 0.00 33 1005.3
20260504204348 22 264 0.0 3.2 0.00 0.00 0.00 33 1005.4
20260504203829 22 286 1.6 12.9 0.00 0.00 0.00 34 1005.4
20260504203328 22 271 1.6 12.9 0.00 0.00 0.00 34 1005.6
20260504202801 22 243 0.0 6.4 0.00 0.00 0.00 32 1005.6
20260504202235 23 250 0.0 12.9 0.00 0.00 0.00 33 1005.7
20260504201706 23 296 0.0 12.9 0.00 0.00 0.00 33 1005.7
20260504201141 23 275 0.0 12.9 0.00 0.00 0.00 33 1005.8
20260504200639 22 101 0.0 12.9 0.00 0.00 0.00 35 1005.8
20260504200137 22 247 1.6 14.5 0.00 0.00 0.00 33 1006.0
20260504195635 22 246 0.0 14.5 0.00 0.00 0.00 35 1006.0
20260504195134 22 273 0.0 4.8 0.00 0.00 0.00 37 1006.1
20260504194634 22 253 0.0 1.6 0.00 0.00 0.00 34 1006.3
20260504194128 22 195 0.0 1.6 0.00 0.00 0.00 34 1006.3
20260504193627 22 259 0.0 9.7 0.00 0.00 0.00 35 1006.3
20260504193124 22 250 1.6 17.7 0.00 0.00 0.00 35 1006.4
20260504192624 22 260 0.0 17.7 0.00 0.00 0.00 35 1006.3
20260504192619 21 261 0.0 3.2 0.00 0.00 0.00 37 1006.4
20260504191622 22 261 1.6 12.9 0.00 0.00 0.00 36 1006.5
20260504191119 22 259 1.6 14.5 0.00 0.00 0.00 37 1006.6
20260504190620 22 275 0.0 14.5 0.00 0.00 0.00 35 1006.5
20260504190055 21 0 1.6 14.5 0.00 0.00 0.00 37 1006.7
20260504185749 22 263 0.0 14.5 0.00 0.00 0.00 34 1006.7
20260504185000 22 240 0.0 6.4 0.00 0.00 0.00 36 1006.6
20260504184451 22 294 0.0 8.0 0.00 0.00 0.00 34 1006.6
20260504183952 22 258 1.6 8.0 0.00 0.00 0.00 34 1006.7
20260504183448 22 247 1.6 16.1 0.00 0.00 0.00 36 1006.7
20260504182947 21 267 0.0 16.1 0.00 0.00 0.00 36 1006.8
20260504182444 21 259 0.0 12.9 0.00 0.00 0.00 38 1006.8
20260504182427 21 278 1.6 12.9 0.00 0.00 0.00 36 1006.9
20260504181443 21 258 1.6 11.3 0.00 0.00 0.00 38 1006.9
20260504180937 21 288 1.6 19.3 0.00 0.00 0.00 40 1006.9
20260504180439 21 267 1.6 19.3 0.00 0.00 0.00 38 1006.9
20260504180428 21 258 0.0 11.3 0.00 0.00 0.00 40 1007.1
20260504175659 21 249 0.0 6.4 0.00 0.00 0.00 37 1007.2
20260504174934 21 279 0.0 14.5 0.00 0.00 0.00 39 1007.2
20260504174434 21 250 0.0 14.5 0.00 0.00 0.00 36 1007.2
20260504173933 21 254 0.0 1.6 0.00 0.00 0.00 40 1007.2
20260504173640 21 169 0.0 1.6 0.00 0.00 0.00 37 1007.3
20260504172905 21 271 0.0 17.7 0.00 0.00 0.00 41 1007.3
20260504172405 21 254 1.6 17.7 0.00 0.00 0.00 38 1007.4
20260504171905 20 0 0.0 14.5 0.00 0.00 0.00 38 1007.4
20260504171405 20 246 0.0 11.3 0.00 0.00 0.00 40 1007.4
20260504170906 21 271 1.6 17.7 0.00 0.00 0.00 43 1007.5
20260504170405 20 252 1.6 17.7 0.00 0.00 0.00 39 1007.6
20260504160348 20 222 0.0 16.1 0.00 0.00 0.00 41 1008.3
20260504160331 19 267 1.6 16.1 0.00 0.00 0.00 40 1008.5